User: anonymous   Login
Location: Unspecified
(0.0000°N, 0.0000°E)
Time: 13:41:01
(UTC+00:00)
Language:

NUDT-PHONESAT - Orbit

View from above orbital plane
View from above orbital plane
View from above satellite
View from above satellite

Ground track
Ground track

The orbit data is extracted from the following two-line orbital elements,

1 40900U 15049B   19343.21882124  .00001595  00000-0  70016-4 0  9998
2 40900  97.4357 350.8953 0011302 300.2916 126.5009 15.23368819234076
Epoch (UTC): 09 December 2019 05:15:06
Eccentricity: 0.0011302
inclination: 97.4357°
perigee height: 488 km
apogee height: 503 km
right ascension of ascending node: 350.8953°
argument of perigee: 300.2916°
revolutions per day: 15.23368819
mean anomaly at epoch: 126.5009°
orbit number at epoch: 23407

The dashed part of the orbit path shows where the satellite is in the earth's shadow,  

DLR